QPF
0.00 0.00 0.00 0.00 0.00 0.00 0.00 0.00 0.00 0.00 0.00 0.00 0.00 0.00 0.00 0.00 0.00 0.00 0.00 0.00 0.00 0.00 0.00 0.00 0.00 0.00 0.00 0.00 0.00 0.00 0.00 0.00 0.00 0.00 0.00 0.00 0.00 0.00 0.00 0.00 0.00 0.00 0.00 0.00 0.00 0.00 0.00 0.00 0.00
0.00 0.00 0.00 0.00 0.00 0.00 0.00 0.00 0.00 0.00 0.00 0.00 0.00 0.00 0.00 0.00 0.00 0.00 0.00 0.00 0.00 0.00 0.00 0.00 0.00 0.00 0.00 0.00 0.00 0.00 0.00 0.00 0.00 0.00 0.00 0.00 0.00 0.00 0.00 0.00 0.00 0.00 0.00 0.00 0.00 0.00 0.00 0.00 0.00
0.00 0.00 0.00 0.00 0.00 0.00 0.00 0.00 0.00 0.00 0.00 0.00 0.00 0.00 0.00 0.00 0.00 0.00 0.00 0.00 0.00 0.00 0.00 0.00 0.00 0.00 0.00 0.00 0.00 0.00 0.00 0.00 0.00 0.00 0.00 0.00 0.00 0.00 0.00 0.00 0.00 0.00 0.00 0.00 0.00 0.00 0.00 0.00 0.00
0.00 0.00 0.00 0.00 0.00 0.00 0.00 0.00 0.00 0.00 0.00 0.00 0.00 0.00 0.00 0.00 0.00 0.00 0.00 0.00 0.00 0.00 0.00 0.00 0.00 0.00 0.00 0.00 0.00 0.00 0.00 0.00 0.00 0.00 0.00 0.00 0.00 0.00 0.00 0.00 0.00 0.00 0.00 0.00 0.00 0.00 0.00 0.00 0.00
0.00 0.00 0.00 0.00 0.00 0.00 0.00 0.00 0.00 0.00 0.00 0.00 0.00 0.00 0.00 0.00 0.00 0.00 0.00 0.00 0.00 0.00 0.00 0.00 0.00 0.00 0.00 0.00 0.00 0.00 0.00 0.00 0.00 0.00 0.00 0.00 0.00 0.00 0.00 0.00 0.00 0.00 0.00 0.00 0.00 0.00 0.00 0.00 0.00
0.00 0.00 0.00 0.00 0.00 0.00 0.00 0.00 0.00 0.00 0.00 0.00 0.00 0.00 0.00 0.00 0.00 0.00 0.00 0.00 0.00 0.00 0.00 0.00 0.00 0.00 0.00 0.00 0.00 0.00 0.00 0.00 0.00 0.00 0.00 0.00 0.00 0.00 0.00 0.00 0.00 0.00 0.00 0.00 0.00 0.00 0.00 0.00 0.00
0.00 0.00 0.00 0.00 0.00 0.00 0.00 0.00 0.00 0.00 0.00 0.00 0.00 0.00 0.00 0.00 0.00 0.00 0.00 0.00 0.00 0.00 0.00 0.00 0.00 0.00 0.00 0.00 0.00 0.00 0.00 0.00 0.00 0.00 0.00 0.00 0.00 0.00 0.00 0.00 0.00 0.00 0.00 0.00 0.00 0.00 0.00 0.00 0.00
0.00 0.00 0.00 0.00 0.00 0.00 0.00 0.00 0.00 0.00 0.00 0.00 0.00 0.00 0.00 0.00 0.00 0.00 0.00 0.00 0.01 0.00 0.00 0.00 0.00 0.00 0.00 0.00 0.00 0.00 0.00 0.00 0.00 0.00 0.00 0.00 0.00 0.00 0.00 0.00 0.00 0.00 0.00 0.00 0.00 0.00 0.00 0.00 0.00
0.00 0.00 0.00 0.00 0.00 0.00 0.00 0.00 0.00 0.00 0.00 0.00 0.00 0.00 0.00 0.00 0.00 0.00 0.00 0.00 0.01 0.01 0.00 0.00 0.00 0.00 0.00 0.00 0.00 0.00 0.00 0.00 0.00 0.00 0.00 0.00 0.00 0.00 0.00 0.00 0.00 0.00 0.00 0.00 0.00 0.00 0.00 0.00 0.00
0.00 0.00 0.00 0.00 0.00 0.00 0.00 0.00 0.00 0.00 0.00 0.00 0.00 0.00 0.00 0.00 0.00 0.00 0.00 0.00 0.00 0.00 0.00 0.00 0.00 0.00 0.00 0.00 0.00 0.00 0.00 0.00 0.00 0.00 0.00 0.00 0.00 0.00 0.00 0.00 0.00 0.00 0.00 0.00 0.00 0.00 0.00 0.00 0.00
0.00 0.00 0.00 0.00 0.00 0.00 0.00 0.00 0.00 0.00 0.00 0.00 0.00 0.00 0.00 0.00 0.00 0.00 0.00 0.00 0.00 0.00 0.00 0.00 0.00 0.00 0.00 0.00 0.00 0.00 0.00 0.00 0.00 0.00 0.00 0.00 0.00 0.00 0.00 0.00 0.00 0.00 0.00 0.00 0.00 0.00 0.00 0.00 0.00
0.00 0.00 0.00 0.00 0.00 0.00 0.00 0.00 0.00 0.00 0.00 0.00 0.00 0.00 0.00 0.00 0.00 0.00 0.00 0.00 0.00 0.00 0.00 0.00 0.00 0.00 0.00 0.00 0.00 0.00 0.00 0.00 0.00 0.00 0.00 0.00 0.00 0.00 0.00 0.00 0.00 0.00 0.00 0.00 0.00 0.00 0.00 0.00 0.00
0.00 0.00 0.00 0.00 0.00 0.00 0.00 0.00 0.00 0.00 0.00 0.00 0.00 0.00 0.00 0.00 0.00 0.00 0.00 0.00 0.00 0.00 0.00 0.00 0.00 0.00 0.00 0.00 0.00 0.00 0.00 0.00 0.00 0.00 0.00 0.00 0.00 0.00 0.00 0.00 0.00 0.00 0.00 0.00 0.00 0.00 0.00 0.00 0.00
0.00 0.00 0.00 0.00 0.00 0.00 0.00 0.00 0.00 0.00 0.00 0.00 0.00 0.00 0.00 0.00 0.00 0.00 0.00 0.00 0.00 0.00 0.00 0.00 0.00 0.00 0.00 0.00 0.00 0.00 0.00 0.00 0.00 0.00 0.00 0.00 0.00 0.00 0.00 0.00 0.00 0.00 0.00 0.00 0.00 0.00 0.00 0.00 0.00
0.00 0.00 0.00 0.00 0.00 0.00 0.00 0.00 0.00 0.00 0.00 0.00 0.00 0.00 0.00 0.00 0.00 0.00 0.00 0.00 0.00 0.00 0.00 0.00 0.00 0.00 0.00 0.00 0.00 0.00 0.00 0.00 0.01 0.01 0.00 0.00 0.00 0.00 0.00 0.00 0.00 0.00 0.00 0.00 0.00 0.00 0.00 0.00 0.00
0.00 0.00 0.00 0.00 0.00 0.00 0.00 0.00 0.00 0.00 0.00 0.00 0.00 0.00 0.00 0.00 0.00 0.00 0.00 0.00 0.00 0.00 0.00 0.00 0.00 0.00 0.00 0.00 0.00 0.00 0.00 0.00 0.01 0.04 0.04 0.00 0.00 0.00 0.00 0.00 0.00 0.00 0.00 0.00 0.00 0.00 0.00 0.00 0.00
0.00 0.00 0.00 0.00 0.00 0.00 0.00 0.00 0.00 0.00 0.00 0.00 0.00 0.00 0.00 0.00 0.00 0.00 0.00 0.00 0.00 0.00 0.00 0.00 0.00 0.00 0.00 0.00 0.00 0.00 0.00 0.00 0.02 0.02 0.06 0.04 0.00 0.00 0.00 0.00 0.00 0.00 0.00 0.00 0.00 0.00 0.00 0.00 0.00
0.00 0.00 0.00 0.00 0.00 0.00 0.00 0.00 0.00 0.00 0.00 0.00 0.00 0.00 0.00 0.00 0.00 0.00 0.00 0.00 0.00 0.00 0.00 0.00 0.00 0.00 0.00 0.00 0.00 0.00 0.00 0.00 0.00 0.01 0.03 0.06 0.03 0.00 0.00 0.00 0.00 0.00 0.00 0.00 0.00 0.00 0.00 0.00 0.00
0.00 0.00 0.00 0.00 0.00 0.00 0.00 0.00 0.00 0.00 0.00 0.00 0.00 0.00 0.00 0.00 0.00 0.00 0.00 0.00 0.00 0.00 0.00 0.00 0.00 0.00 0.00 0.00 0.00 0.00 0.00 0.00 0.00 0.00 0.00 0.04 0.05 0.01 0.00 0.00 0.00 0.00 0.00 0.00 0.00 0.00 0.00 0.00 0.00
0.00 0.00 0.00 0.00 0.00 0.00 0.00 0.00 0.00 0.00 0.00 0.00 0.00 0.00 0.00 0.00 0.00 0.00 0.00 0.00 0.00 0.00 0.00 0.00 0.00 0.00 0.00 0.00 0.00 0.00 0.00 0.00 0.00 0.00 0.00 0.00 0.02 0.05 0.02 0.00 0.00 0.00 0.00 0.00 0.00 0.00 0.00 0.00 0.00
0.00 0.00 0.00 0.00 0.00 0.00 0.00 0.00 0.00 0.00 0.00 0.00 0.00 0.00 0.00 0.00 0.00 0.00 0.00 0.00 0.00 0.00 0.00 0.00 0.00 0.00 0.00 0.00 0.00 0.00 0.00 0.00 0.00 0.00 0.00 0.00 0.00 0.05 0.09 0.03 0.00 0.00 0.00 0.00 0.00 0.00 0.00 0.00 0.01
0.00 0.00 0.00 0.00 0.00 0.00 0.00 0.00 0.00 0.00 0.00 0.00 0.00 0.00 0.00 0.00 0.00 0.00 0.00 0.00 0.00 0.00 0.00 0.00 0.00 0.00 0.00 0.00 0.00 0.00 0.00 0.00 0.00 0.00 0.00 0.02 0.03 0.02 0.05 0.11 0.03 0.00 0.00 0.00 0.00 0.00 0.01 0.02 0.02
0.00 0.00 0.00 0.00 0.00 0.00 0.00 0.00 0.00 0.00 0.00 0.00 0.00 0.00 0.00 0.00 0.00 0.00 0.00 0.00 0.00 0.00 0.00 0.00 0.00 0.00 0.00 0.00 0.00 0.00 0.00 0.00 0.00 0.00 0.00 0.00 0.02 0.04 0.07 0.08 0.09 0.06 0.03 0.04 0.04 0.02 0.04 0.02 0.01
0.00 0.00 0.00 0.00 0.00 0.00 0.00 0.00 0.00 0.00 0.00 0.00 0.00 0.00 0.00 0.00 0.00 0.00 0.00 0.00 0.00 0.00 0.00 0.00 0.00 0.00 0.00 0.00 0.00 0.00 0.00 0.01 0.01 0.01 0.00 0.00 0.01 0.03 0.06 0.07 0.08 0.08 0.05 0.05 0.06 0.08 0.07 0.04 0.02
0.00 0.00 0.00 0.00 0.00 0.00 0.00 0.00 0.00 0.00 0.00 0.00 0.00 0.00 0.00 0.00 0.00 0.00 0.00 0.00 0.00 0.00 0.00 0.00 0.00 0.00 0.00 0.00 0.00 0.00 0.00 0.00 0.00 0.00 0.00 0.00 0.00 0.02 0.03 0.04 0.04 0.02 0.02 0.04 0.06 0.07 0.10 0.08 0.03
0.00 0.00 0.00 0.00 0.00 0.00 0.00 0.00 0.00 0.00 0.00 0.00 0.00 0.00 0.00 0.00 0.00 0.00 0.00 0.00 0.00 0.00 0.00 0.00 0.00 0.00 0.00 0.00 0.00 0.00 0.00 0.00 0.00 0.00 0.00 0.00 0.00 0.00 0.01 0.05 0.03 0.03 0.01 0.02 0.05 0.05 0.06 0.08 0.06
0.00 0.00 0.00 0.00 0.00 0.00 0.00 0.00 0.00 0.00 0.00 0.00 0.00 0.00 0.00 0.00 0.00 0.00 0.00 0.00 0.00 0.00 0.00 0.00 0.00 0.00 0.00 0.00 0.00 0.00 0.00 0.00 0.00 0.00 0.01 0.00 0.00 0.00 0.01 0.03 0.04 0.04 0.02 0.02 0.04 0.04 0.06 0.07 0.05
0.00 0.00 0.00 0.00 0.00 0.00 0.00 0.00 0.00 0.00 0.00 0.00 0.00 0.00 0.00 0.00 0.00 0.00 0.00 0.00 0.00 0.00 0.00 0.00 0.00 0.00 0.00 0.00 0.00 0.00 0.00 0.00 0.00 0.01 0.01 0.00 0.00 0.00 0.01 0.01 0.01 0.05 0.06 0.06 0.06 0.05 0.08 0.10 0.06
0.00 0.00 0.00 0.00 0.00 0.00 0.00 0.00 0.00 0.00 0.00 0.00 0.00 0.00 0.00 0.00 0.00 0.00 0.00 0.00 0.00 0.00 0.00 0.00 0.00 0.00 0.00 0.00 0.00 0.00 0.00 0.00 0.00 0.01 0.00 0.00 0.00 0.00 0.00 0.00 0.01 0.03 0.04 0.04 0.10 0.06 0.08 0.11 0.05
0.00 0.00 0.00 0.00 0.00 0.00 0.00 0.00 0.00 0.00 0.00 0.00 0.00 0.00 0.00 0.00 0.00 0.00 0.00 0.00 0.00 0.00 0.00 0.00 0.00 0.00 0.00 0.00 0.00 0.00 0.00 0.00 0.00 0.00 0.00 0.01 0.00 0.00 0.01 0.02 0.02 0.03 0.05 0.06 0.08 0.07 0.08 0.07 0.03
MSLP
1009.76 1009.59 1009.70 1009.94 1011.51 1012.31 1011.89 1010.10 1008.36 1007.26 1005.86 1004.67 1003.90 1004.04 1004.92 1005.40 1005.98 1006.73 1005.54 1005.62 1006.06 1006.38 1006.85 1007.40 1007.72 1008.14 1008.44 1008.70 1009.07 1009.35 1009.48 1009.64 1009.85 1010.27 1010.56 1010.95 1011.42 1011.50 1011.66 1011.59 1011.55 1011.70 1011.86 1012.09 1012.30 1012.62 1012.83 1012.77 1012.81
1009.83 1009.52 1009.84 1010.83 1012.38 1013.18 1011.88 1009.64 1008.22 1007.08 1006.09 1005.24 1004.12 1004.20 1004.69 1005.41 1005.36 1005.79 1005.89 1006.11 1006.51 1006.54 1006.96 1007.12 1007.68 1008.13 1008.52 1008.99 1009.18 1009.50 1009.74 1009.94 1010.02 1010.40 1010.73 1011.00 1011.39 1011.66 1011.71 1011.91 1011.95 1011.89 1012.00 1012.13 1012.33 1012.59 1012.82 1012.80 1012.82
1009.85 1009.87 1010.76 1011.85 1013.10 1013.15 1011.62 1009.64 1008.02 1006.13 1006.10 1005.12 1004.71 1004.58 1004.94 1005.43 1005.34 1005.42 1005.62 1006.14 1006.81 1007.11 1007.32 1007.51 1007.59 1008.09 1008.56 1008.96 1009.24 1009.66 1009.84 1010.09 1010.33 1010.58 1010.75 1011.08 1011.48 1011.82 1011.86 1012.04 1012.19 1012.25 1012.26 1012.36 1012.55 1012.75 1012.91 1012.95 1012.94
1010.12 1010.63 1012.00 1012.24 1012.77 1012.04 1011.10 1009.28 1007.78 1006.50 1004.99 1004.91 1004.72 1005.07 1005.19 1005.52 1005.22 1005.28 1005.88 1006.36 1006.95 1007.56 1007.76 1007.99 1008.09 1008.26 1008.67 1009.01 1009.27 1009.66 1010.00 1010.23 1010.50 1010.67 1010.82 1011.09 1011.44 1011.80 1012.01 1012.14 1012.40 1012.44 1012.50 1012.62 1012.79 1013.08 1013.08 1013.06 1013.15
1010.70 1011.71 1012.76 1012.96 1012.55 1011.51 1010.28 1009.22 1008.00 1007.20 1006.31 1005.84 1005.14 1005.86 1005.89 1005.92 1005.67 1005.62 1005.91 1006.41 1006.83 1007.53 1007.80 1008.26 1008.54 1008.69 1008.86 1009.16 1009.40 1009.73 1010.02 1010.40 1010.66 1010.81 1011.04 1011.26 1011.59 1011.84 1012.03 1012.13 1012.31 1012.46 1012.63 1012.79 1013.13 1013.34 1013.28 1013.17 1013.19
1011.68 1012.65 1013.52 1013.36 1012.45 1011.11 1010.04 1009.26 1008.06 1007.66 1007.03 1006.36 1006.20 1006.21 1006.75 1006.36 1006.26 1006.33 1006.58 1006.83 1007.19 1007.38 1007.74 1008.03 1008.38 1008.68 1008.98 1009.19 1009.38 1009.68 1009.98 1010.34 1010.68 1010.95 1011.16 1011.49 1011.80 1012.04 1012.18 1012.33 1012.32 1012.58 1012.72 1012.81 1013.14 1013.43 1013.42 1013.39 1013.46
1011.95 1013.08 1013.53 1013.05 1012.14 1010.92 1009.85 1009.04 1008.72 1008.16 1007.54 1006.94 1006.76 1006.93 1007.06 1007.19 1006.60 1006.73 1007.02 1007.44 1007.90 1008.19 1008.36 1008.16 1008.44 1008.61 1008.89 1009.14 1009.34 1009.72 1009.97 1010.17 1010.58 1010.92 1011.21 1011.43 1011.72 1011.96 1012.10 1012.25 1012.31 1012.54 1012.69 1012.89 1013.14 1013.39 1013.52 1013.56 1013.64
1011.62 1012.88 1013.21 1012.64 1011.84 1010.69 1009.71 1009.07 1008.65 1008.25 1007.84 1007.16 1006.72 1007.20 1007.36 1007.50 1007.18 1007.33 1007.70 1008.13 1008.38 1008.56 1008.71 1008.92 1008.81 1008.94 1009.20 1009.38 1009.48 1009.65 1009.94 1010.19 1010.50 1010.81 1011.11 1011.33 1011.58 1011.88 1012.09 1012.18 1012.25 1012.45 1012.68 1012.92 1013.25 1013.55 1013.54 1013.59 1013.79
1011.24 1012.63 1013.22 1012.10 1011.26 1010.46 1009.62 1009.25 1008.62 1008.25 1008.08 1007.72 1007.58 1007.54 1007.46 1007.60 1007.90 1007.83 1008.28 1008.74 1008.85 1008.87 1008.81 1008.93 1009.02 1008.98 1009.31 1009.66 1009.80 1010.00 1010.08 1010.30 1010.59 1010.81 1011.03 1011.32 1011.56 1011.82 1012.02 1012.19 1012.29 1012.41 1012.63 1012.83 1013.17 1013.62 1013.60 1013.72 1013.90
1011.31 1012.43 1012.02 1011.08 1010.38 1010.10 1009.64 1009.33 1008.76 1008.52 1008.21 1008.03 1007.94 1007.68 1007.46 1007.33 1007.87 1008.06 1008.43 1008.73 1008.86 1008.92 1008.99 1008.94 1009.00 1008.88 1009.00 1009.41 1009.86 1010.14 1010.33 1010.51 1010.66 1010.85 1011.14 1011.54 1011.80 1012.01 1012.14 1012.22 1012.23 1012.32 1012.50 1012.64 1012.85 1013.40 1013.70 1013.77 1013.96
1011.31 1011.52 1011.25 1010.49 1010.01 1009.82 1009.52 1009.24 1008.99 1008.71 1008.58 1008.18 1007.74 1008.02 1007.73 1007.71 1007.71 1008.11 1008.13 1008.32 1008.23 1008.40 1008.72 1008.85 1009.03 1009.16 1009.07 1009.15 1009.59 1010.09 1010.33 1010.49 1010.68 1010.87 1011.17 1011.46 1011.82 1012.13 1012.28 1012.43 1012.54 1012.65 1012.72 1012.81 1012.92 1013.01 1013.82 1013.83 1013.93
1011.32 1010.92 1010.78 1010.50 1010.12 1009.88 1009.50 1009.14 1009.07 1008.86 1008.37 1007.84 1007.75 1007.50 1007.50 1007.72 1007.83 1007.75 1007.97 1007.95 1008.06 1008.24 1008.03 1008.54 1009.02 1009.32 1009.47 1009.26 1009.70 1009.98 1010.50 1010.48 1010.60 1010.69 1010.95 1011.41 1011.79 1012.13 1012.26 1012.45 1012.66 1012.78 1012.88 1012.98 1013.19 1013.24 1013.58 1013.75 1013.73
1011.32 1011.06 1010.71 1010.42 1009.94 1009.50 1009.18 1008.90 1009.13 1008.62 1008.06 1007.68 1007.64 1007.59 1007.36 1007.47 1007.45 1007.22 1007.42 1007.73 1007.69 1007.88 1007.99 1008.27 1008.65 1009.05 1009.31 1009.44 1009.66 1009.87 1010.21 1010.37 1010.42 1010.47 1010.67 1011.10 1011.65 1012.03 1012.23 1012.32 1012.61 1012.72 1012.92 1013.11 1013.16 1013.29 1013.39 1013.39 1013.51
1011.37 1011.08 1010.67 1010.07 1009.84 1009.60 1009.43 1009.02 1008.86 1008.04 1007.46 1007.85 1007.74 1007.45 1007.17 1007.16 1007.25 1007.19 1007.15 1007.58 1007.75 1007.56 1007.68 1008.01 1008.27 1008.58 1008.96 1009.25 1009.45 1009.61 1009.70 1009.98 1010.43 1010.77 1010.87 1010.86 1011.13 1011.71 1012.20 1012.41 1012.76 1012.58 1012.71 1013.02 1013.16 1013.20 1013.41 1013.29 1013.34
1011.34 1011.24 1010.67 1010.29 1010.02 1009.60 1009.38 1009.17 1008.84 1007.90 1007.96 1008.00 1007.83 1007.08 1006.68 1006.58 1006.57 1006.64 1006.58 1006.91 1007.04 1007.22 1007.38 1007.79 1008.08 1008.38 1008.65 1008.92 1009.22 1009.48 1009.53 1009.86 1010.30 1010.40 1010.75 1011.08 1011.25 1011.36 1011.64 1012.06 1012.39 1012.29 1012.44 1012.74 1013.02 1012.98 1012.99 1013.20 1013.46
1011.96 1011.96 1011.77 1010.75 1010.15 1009.66 1009.61 1009.63 1008.94 1008.38 1008.36 1008.25 1007.76 1007.46 1007.28 1006.44 1006.21 1005.99 1005.98 1006.27 1006.64 1006.94 1007.20 1007.42 1007.72 1008.06 1008.44 1008.68 1008.98 1009.31 1009.46 1009.71 1010.08 1010.34 1010.64 1010.70 1011.00 1011.23 1011.45 1011.66 1011.70 1011.65 1012.13 1012.52 1012.85 1013.00 1013.09 1013.20 1013.50
1013.00 1012.82 1012.40 1011.39 1010.26 1010.39 1010.28 1010.01 1009.37 1008.68 1008.62 1008.37 1007.90 1007.51 1007.21 1006.85 1006.61 1006.00 1005.78 1005.72 1006.17 1006.16 1006.46 1006.92 1007.28 1007.63 1007.90 1008.16 1008.54 1008.86 1009.19 1009.56 1009.71 1010.01 1010.29 1010.50 1010.61 1010.81 1011.14 1011.41 1011.34 1011.27 1011.81 1012.27 1012.45 1012.67 1012.81 1013.14 1013.40
1013.11 1012.74 1012.33 1012.09 1011.10 1010.66 1010.52 1010.18 1009.51 1008.92 1008.69 1008.24 1007.87 1007.28 1006.96 1006.72 1006.12 1005.71 1005.79 1005.58 1005.82 1006.12 1006.09 1006.26 1006.66 1007.15 1007.54 1008.06 1008.52 1008.82 1009.14 1009.22 1009.19 1009.56 1009.72 1010.01 1010.13 1010.31 1010.64 1010.93 1011.06 1011.07 1011.58 1011.90 1012.17 1012.24 1012.73 1012.93 1013.30
1012.23 1012.34 1012.28 1011.66 1010.95 1010.99 1010.63 1010.18 1009.40 1008.47 1008.22 1007.78 1007.26 1007.00 1006.46 1005.96 1005.01 1005.03 1005.32 1005.42 1005.90 1006.28 1006.46 1006.40 1006.72 1006.85 1007.48 1008.05 1008.50 1008.84 1009.03 1008.98 1009.08 1009.01 1008.81 1009.18 1009.53 1009.66 1009.98 1010.39 1010.54 1010.80 1011.16 1011.42 1011.71 1012.13 1012.47 1013.21 1013.62
1011.74 1011.76 1011.72 1011.40 1010.92 1011.08 1010.77 1010.31 1008.90 1008.44 1007.73 1007.30 1006.96 1006.71 1006.11 1005.54 1005.04 1004.91 1004.96 1005.26 1005.46 1005.76 1006.16 1006.61 1006.67 1007.08 1007.32 1007.43 1007.66 1007.84 1008.09 1008.16 1008.16 1008.24 1008.41 1008.36 1008.61 1008.91 1009.38 1009.74 1010.00 1010.23 1010.71 1011.16 1011.47 1011.74 1012.36 1012.94 1013.25
1011.23 1011.36 1011.42 1011.52 1011.32 1011.28 1011.30 1010.48 1009.62 1008.02 1007.49 1006.92 1006.74 1006.46 1005.85 1005.26 1005.14 1004.96 1004.92 1005.00 1005.44 1005.74 1005.93 1006.24 1006.52 1006.86 1007.28 1007.43 1007.68 1007.93 1007.95 1008.00 1008.21 1008.19 1008.10 1007.88 1007.88 1008.05 1008.77 1009.25 1009.50 1009.76 1010.02 1010.55 1010.87 1011.34 1011.73 1012.44 1013.05
1010.83 1010.68 1011.25 1011.70 1012.20 1012.52 1011.99 1012.02 1010.56 1009.05 1008.16 1007.56 1007.06 1006.73 1006.10 1005.54 1005.34 1005.06 1005.46 1005.72 1005.94 1006.22 1006.18 1006.36 1006.54 1006.74 1006.80 1007.35 1007.80 1007.89 1007.79 1007.84 1007.38 1007.18 1007.08 1007.38 1007.56 1007.65 1007.93 1008.61 1009.21 1009.42 1009.43 1009.78 1010.27 1010.62 1010.94 1011.36 1012.38
1010.44 1010.65 1011.44 1012.04 1012.72 1013.01 1012.72 1012.83 1010.40 1009.63 1008.73 1008.11 1007.61 1007.07 1006.78 1006.60 1006.18 1006.14 1006.40 1006.42 1006.62 1006.72 1006.85 1006.80 1006.72 1006.88 1006.83 1006.81 1007.14 1007.53 1007.72 1007.50 1007.24 1007.23 1007.21 1007.37 1007.44 1007.47 1007.48 1007.72 1008.56 1008.93 1009.19 1009.17 1009.38 1010.19 1010.52 1010.61 1011.51
1010.40 1011.19 1012.16 1013.28 1013.82 1013.97 1013.08 1012.66 1011.04 1009.92 1009.04 1008.51 1007.88 1007.48 1007.16 1006.89 1006.76 1006.83 1006.85 1006.78 1006.92 1006.96 1006.93 1006.93 1007.05 1007.16 1007.11 1006.84 1006.82 1007.07 1007.16 1007.09 1007.22 1007.14 1007.11 1006.82 1007.07 1007.43 1007.54 1007.38 1007.49 1007.95 1008.68 1009.18 1008.92 1009.15 1009.95 1010.35 1010.65
1010.95 1012.43 1013.86 1014.53 1014.94 1014.55 1013.24 1012.67 1010.56 1009.17 1008.53 1008.27 1007.80 1007.42 1007.13 1007.04 1007.04 1006.96 1006.87 1006.93 1006.80 1006.76 1006.82 1006.98 1007.12 1007.06 1007.02 1007.00 1006.91 1006.82 1006.69 1006.59 1006.62 1006.40 1006.28 1006.43 1006.48 1006.90 1007.09 1007.22 1007.12 1007.42 1008.10 1008.95 1009.22 1008.64 1009.45 1010.22 1010.40
1011.13 1012.62 1014.54 1015.21 1015.59 1014.66 1013.40 1011.88 1009.68 1008.42 1007.89 1007.98 1007.68 1007.47 1007.32 1007.15 1007.02 1006.89 1006.86 1006.76 1006.65 1006.61 1006.60 1006.74 1006.84 1006.79 1006.77 1006.90 1006.86 1006.64 1006.28 1006.04 1005.72 1005.60 1005.54 1005.46 1005.31 1005.67 1005.91 1006.38 1006.45 1006.54 1007.25 1008.04 1008.02 1008.52 1008.68 1009.42 1009.92
1011.47 1012.57 1013.54 1014.88 1015.23 1014.88 1013.10 1011.01 1009.16 1008.02 1008.03 1007.71 1007.63 1007.49 1007.22 1007.06 1007.01 1006.72 1006.56 1006.43 1006.20 1006.10 1006.21 1006.40 1006.37 1006.54 1006.53 1006.52 1006.45 1006.34 1005.83 1005.58 1005.20 1004.72 1004.62 1004.57 1004.37 1004.60 1005.03 1005.32 1005.55 1005.69 1006.00 1006.53 1007.06 1007.61 1008.20 1008.75 1009.34
1011.06 1012.20 1013.82 1015.40 1015.80 1014.80 1012.73 1011.26 1009.37 1008.39 1008.20 1007.84 1007.70 1007.48 1007.20 1006.80 1006.86 1006.94 1006.74 1006.34 1005.92 1005.98 1006.00 1006.06 1006.20 1006.25 1006.24 1006.21 1006.06 1005.82 1005.46 1004.97 1004.58 1004.02 1003.92 1003.80 1003.55 1003.58 1004.05 1004.60 1004.91 1004.96 1005.10 1005.48 1006.24 1006.95 1007.75 1008.12 1008.75
1011.67 1012.41 1013.70 1014.86 1015.38 1014.74 1013.19 1010.36 1008.67 1008.19 1007.88 1008.04 1007.90 1007.71 1007.44 1006.94 1006.63 1006.08 1005.95 1005.87 1006.07 1005.84 1005.80 1005.77 1005.90 1006.05 1006.00 1005.92 1005.78 1005.51 1004.99 1004.42 1004.11 1003.76 1003.28 1003.05 1002.59 1002.72 1002.96 1003.36 1003.88 1004.17 1004.41 1004.43 1005.40 1006.30 1007.10 1007.72 1008.49
1011.22 1011.99 1013.20 1014.48 1014.85 1014.71 1013.82 1009.48 1008.46 1007.96 1007.99 1007.86 1007.50 1006.92 1006.48 1005.98 1005.47 1005.32 1005.22 1005.40 1005.64 1005.68 1005.61 1005.52 1005.39 1005.41 1005.43 1005.58 1005.42 1005.14 1004.72 1004.21 1003.96 1003.48 1002.93 1002.41 1002.05 1001.89 1001.99 1002.36 1002.73 1003.03 1003.43 1003.91 1004.78 1005.30 1006.28 1007.26 1007.67
Thickness
5789 5793 5793 5786 5753 5737 5731 5751 5775 5775 5787 5811 5824 5817 5807 5810 5803 5780 5838 5844 5843 5842 5838 5834 5830 5825 5823 5821 5818 5817 5817 5816 5815 5811 5809 5807 5802 5802 5801 5803 5803 5801 5800 5798 5796 5792 5789 5789 5786
5786 5790 5785 5764 5728 5710 5723 5755 5768 5782 5796 5805 5817 5815 5806 5794 5821 5821 5827 5838 5839 5839 5835 5835 5830 5825 5821 5817 5817 5815 5813 5812 5812 5809 5807 5804 5802 5800 5800 5799 5799 5799 5797 5796 5795 5793 5788 5788 5786
5783 5784 5765 5738 5709 5711 5723 5758 5770 5790 5792 5800 5804 5814 5806 5798 5819 5825 5835 5836 5833 5831 5829 5828 5829 5824 5819 5816 5815 5811 5811 5809 5808 5807 5805 5802 5801 5798 5798 5797 5796 5796 5795 5793 5792 5791 5787 5787 5785
5775 5770 5754 5731 5728 5736 5744 5762 5776 5782 5799 5802 5806 5792 5809 5816 5822 5830 5833 5833 5829 5824 5822 5821 5821 5821 5817 5815 5813 5809 5807 5806 5805 5804 5803 5801 5800 5797 5795 5794 5793 5793 5791 5790 5789 5787 5786 5785 5783
5766 5751 5725 5723 5727 5741 5753 5762 5769 5773 5783 5785 5799 5780 5788 5808 5822 5826 5828 5829 5826 5821 5819 5815 5813 5814 5813 5811 5810 5807 5805 5803 5801 5800 5799 5798 5796 5795 5795 5794 5793 5791 5789 5788 5786 5784 5783 5783 5780
5745 5738 5711 5709 5723 5742 5752 5761 5771 5768 5772 5781 5780 5776 5777 5802 5809 5813 5816 5818 5819 5817 5814 5812 5810 5810 5809 5808 5806 5804 5803 5801 5799 5797 5796 5794 5793 5792 5792 5791 5791 5789 5787 5787 5785 5782 5781 5780 5776
5738 5722 5712 5718 5721 5736 5752 5757 5757 5760 5760 5769 5780 5762 5776 5785 5800 5805 5806 5807 5808 5807 5805 5805 5804 5804 5804 5804 5804 5801 5800 5799 5797 5794 5792 5791 5791 5790 5790 5789 5788 5787 5785 5784 5783 5781 5779 5778 5773
5738 5723 5721 5719 5718 5731 5751 5752 5760 5759 5759 5773 5778 5753 5758 5777 5791 5794 5795 5793 5795 5798 5797 5794 5794 5795 5796 5796 5797 5797 5797 5795 5793 5792 5789 5788 5788 5787 5787 5786 5785 5785 5783 5781 5779 5778 5778 5776 5770
5745 5707 5698 5719 5725 5732 5747 5745 5758 5766 5759 5763 5762 5762 5770 5775 5777 5779 5776 5777 5779 5785 5789 5790 5788 5790 5789 5789 5789 5789 5790 5790 5788 5787 5786 5785 5786 5785 5785 5784 5783 5783 5782 5780 5776 5774 5774 5774 5769
5727 5700 5710 5727 5737 5734 5741 5742 5747 5749 5747 5751 5752 5759 5765 5770 5766 5766 5763 5764 5768 5773 5778 5784 5784 5784 5786 5784 5783 5782 5783 5783 5783 5782 5781 5780 5780 5780 5781 5780 5780 5780 5780 5778 5776 5772 5770 5772 5768
5726 5710 5723 5733 5737 5737 5734 5734 5739 5737 5732 5742 5742 5745 5751 5756 5759 5754 5759 5759 5767 5770 5771 5775 5777 5776 5778 5780 5777 5776 5777 5777 5778 5778 5776 5776 5775 5776 5776 5775 5774 5774 5774 5774 5773 5772 5767 5767 5766
5718 5727 5727 5727 5729 5725 5726 5734 5729 5731 5734 5746 5746 5752 5747 5742 5744 5749 5747 5754 5757 5762 5768 5768 5769 5769 5768 5771 5769 5769 5770 5772 5773 5774 5773 5772 5772 5771 5771 5771 5770 5770 5770 5770 5769 5768 5764 5763 5764
5717 5720 5721 5721 5721 5724 5727 5724 5724 5721 5732 5739 5739 5739 5741 5739 5742 5749 5751 5750 5752 5751 5757 5761 5762 5763 5763 5762 5764 5764 5764 5765 5767 5769 5771 5770 5768 5766 5766 5766 5767 5766 5766 5765 5765 5764 5762 5763 5762
5716 5714 5715 5721 5719 5717 5715 5716 5722 5725 5734 5726 5727 5729 5731 5732 5732 5736 5743 5738 5741 5745 5747 5754 5755 5757 5758 5757 5757 5759 5760 5761 5760 5759 5761 5764 5765 5762 5761 5761 5760 5762 5762 5761 5760 5761 5760 5761 5760
5712 5702 5705 5713 5714 5710 5715 5707 5708 5724 5721 5717 5717 5724 5727 5729 5729 5729 5737 5737 5736 5738 5741 5742 5746 5748 5750 5750 5751 5750 5751 5752 5753 5755 5754 5754 5756 5758 5758 5756 5757 5758 5758 5758 5757 5758 5759 5758 5756
5694 5688 5672 5697 5704 5708 5708 5681 5705 5714 5710 5709 5712 5714 5714 5722 5727 5729 5732 5733 5732 5731 5733 5734 5737 5739 5740 5742 5742 5743 5744 5744 5745 5746 5747 5750 5750 5751 5751 5753 5755 5756 5755 5754 5754 5754 5754 5754 5752
5672 5667 5671 5677 5697 5693 5693 5679 5698 5705 5701 5700 5703 5704 5707 5710 5713 5720 5726 5729 5727 5730 5730 5730 5730 5731 5733 5736 5736 5737 5739 5739 5741 5741 5743 5743 5744 5747 5746 5747 5751 5752 5753 5751 5752 5751 5751 5749 5748
5660 5664 5666 5661 5682 5685 5678 5675 5686 5693 5691 5692 5694 5698 5701 5705 5710 5716 5717 5722 5722 5721 5724 5727 5726 5726 5726 5725 5726 5727 5729 5731 5734 5737 5738 5738 5740 5743 5743 5744 5744 5747 5748 5748 5749 5748 5746 5745 5744
5673 5667 5663 5669 5680 5676 5672 5673 5684 5696 5690 5690 5694 5693 5696 5701 5716 5715 5714 5715 5715 5713 5714 5716 5717 5718 5716 5713 5712 5713 5717 5722 5724 5731 5735 5737 5737 5739 5741 5741 5742 5743 5744 5744 5745 5743 5743 5736 5735
5673 5669 5659 5669 5678 5674 5666 5670 5688 5688 5690 5692 5692 5693 5696 5702 5707 5710 5710 5710 5711 5711 5710 5709 5711 5710 5711 5710 5710 5711 5713 5718 5723 5726 5729 5733 5736 5737 5739 5739 5739 5740 5740 5738 5740 5740 5737 5734 5732
5668 5663 5658 5657 5667 5666 5657 5658 5666 5688 5689 5693 5693 5695 5697 5700 5699 5704 5709 5708 5707 5706 5706 5705 5705 5705 5703 5702 5703 5702 5704 5707 5709 5714 5718 5725 5729 5731 5732 5733 5733 5735 5737 5736 5738 5736 5736 5730 5728
5656 5668 5663 5657 5645 5627 5655 5617 5652 5668 5671 5680 5681 5684 5689 5695 5699 5701 5699 5698 5698 5697 5699 5698 5698 5696 5697 5693 5691 5692 5694 5695 5703 5710 5715 5717 5721 5724 5726 5729 5727 5729 5734 5733 5734 5735 5736 5734 5727
5656 5666 5659 5653 5636 5631 5635 5613 5642 5655 5665 5669 5671 5676 5675 5677 5682 5683 5682 5684 5685 5685 5685 5687 5689 5687 5688 5689 5688 5684 5685 5690 5695 5696 5699 5704 5709 5713 5718 5722 5721 5722 5725 5731 5731 5727 5730 5733 5727
5666 5655 5638 5620 5612 5602 5622 5619 5625 5640 5655 5659 5666 5669 5672 5672 5672 5672 5674 5675 5675 5675 5675 5676 5675 5674 5674 5677 5679 5677 5678 5680 5679 5684 5688 5694 5699 5702 5706 5712 5717 5721 5721 5718 5729 5731 5725 5725 5729
5645 5623 5595 5596 5592 5596 5622 5610 5625 5648 5653 5656 5659 5664 5668 5668 5666 5667 5669 5667 5668 5669 5667 5664 5663 5664 5664 5664 5668 5670 5671 5673 5674 5678 5683 5683 5686 5691 5696 5703 5709 5712 5711 5702 5705 5722 5717 5716 5722
5640 5621 5588 5585 5578 5593 5616 5607 5628 5648 5653 5651 5654 5658 5658 5660 5660 5663 5663 5661 5661 5661 5659 5657 5656 5656 5655 5654 5656 5660 5664 5666 5670 5672 5674 5677 5680 5684 5691 5695 5701 5707 5703 5698 5708 5714 5715 5714 5716
5627 5612 5612 5593 5590 5569 5595 5614 5639 5650 5644 5644 5644 5645 5649 5649 5651 5654 5657 5657 5656 5656 5653 5650 5648 5645 5645 5647 5649 5652 5656 5660 5664 5668 5667 5668 5673 5676 5683 5689 5695 5703 5707 5707 5711 5712 5710 5711 5712
5626 5620 5587 5569 5573 5570 5587 5594 5612 5634 5628 5635 5635 5635 5639 5644 5645 5643 5645 5649 5650 5648 5646 5643 5639 5637 5637 5638 5641 5644 5648 5653 5656 5661 5661 5659 5663 5669 5675 5680 5685 5694 5702 5707 5707 5705 5704 5706 5708
5609 5594 5590 5575 5567 5564 5571 5588 5618 5625 5625 5621 5621 5624 5624 5628 5634 5641 5644 5643 5640 5641 5638 5634 5632 5629 5630 5630 5630 5634 5639 5645 5647 5650 5653 5654 5657 5660 5669 5676 5679 5685 5696 5704 5701 5700 5700 5703 5701
5612 5601 5585 5550 5568 5553 5552 5591 5625 5624 5619 5613 5615 5620 5623 5631 5635 5635 5635 5634 5631 5630 5629 5627 5626 5625 5625 5621 5621 5622 5627 5632 5634 5638 5643 5648 5651 5654 5663 5672 5676 5684 5692 5697 5696 5698 5697 5697 5703